Погода в Насадке

Россия / Пермский край     57°52′21″N   56°47′25″E
темп.,
°C
ветер,
м/с
пор.,
м/с
влажн.,
%
обл.,
%
осадки,
мм/ч
давл.,
гПа
погр.,
м
17 сентября, пт
пт1723:00+4сз4998100 0.8 10021109
02:00+4сз41095100 0.3 1002884
05:00+5сз4995100 0.6 10031076
08:00+6сз4996100 1.1 10041103
11:00+5сз489699 1.6 1006879
14:00+7сз4790100 0.4 1007727
17:00+5сз3794100 1.1 1009832
20:00+4ссз3696100 1.1 1010675
18 сентября, сб
сб1823:00+4зсз3595100 1.7 1010501
02:00+3з2495100 0.4 1010198
05:00+3сз3895100 0.5 1010318
08:00+3сз489586 0.1 1011626
11:00+3сз498899 0.1 1011863
14:00+5сз597666 0.6 10111203
17:00+6сз51069100 0.9 10121420
20:00+4сз61178100 0.1 10121076
19 сентября, вс
вс1923:00+3зсз61286100 0.1 10121121
02:00+2сз61293100 0.2 10131104
05:00+2сз61192100 0.4 10131056
08:00+1сз61292100 0.1 1014992
11:00+3сз61176100 0.3 10161281
14:00+4сз51063100 0.1 10181287
17:00+4сз5962100 0.1 10201269
20:00+3сз4868100 0.0 10211178
20 сентября, пн
пн2023:00+3ссз4765100 0.0 10221011
02:00+2сз3674100 0.0 1023437
05:00+2зсз2679100 0.0 1025308
08:00+2сз2678100 0.0 1026321
11:00+5ссз2369100 0.1 1027663
14:00+6ссз2358100 0.1 10281139
17:00+5ссз2362100 0.1 1029376
20:00+4ссв1273100 0.0 103038
21 сентября, вт
вт2123:00+3св1275100 0.0 103045
02:00+3св1181100 0.0 103115
05:00+3ссв1179100 0.0 103119
08:00+2ссв11835 0.0 103024
11:00+7св11575 0.0 1029878
14:00+10с11495 0.0 10281079
17:00+10ссв11512 0.0 1026979
20:00+4ссв11784 0.0 102610